RH
27 24 23 22 23 23 23 23 22 21 22 21 22 22 22 23 23 23 24 23 24 25 24 26 28 29 32 33 32 32 30 29 30 30 33 35 34 36 38 36 34 36 38 41 43 41 38 38 39 40 40 40 41 42 41 39 39 37 35 33 32 34 34 34 38 39 38 36 35 37 34 30 31 28 25 26 27 24 24 23 23 24 22 23 26
30 26 24 23 22 22 23 23 22 21 21 21 20 21 21 22 22 22 22 22 23 22 22 24 26 27 31 34 32 31 29 28 29 30 31 33 34 35 36 34 33 34 34 35 37 38 37 36 37 39 39 38 38 39 40 38 38 37 35 34 34 36 36 34 34 36 37 37 36 36 35 31 29 28 25 25 26 24 24 23 24 25 21 20 25
34 30 28 25 23 22 22 22 23 22 21 21 20 20 21 21 20 21 21 22 22 21 21 23 24 22 26 29 28 28 28 27 29 29 29 31 32 34 35 34 33 33 32 32 34 35 35 35 36 38 39 37 35 36 39 38 38 37 35 33 33 34 35 33 30 31 35 36 35 35 36 32 28 27 25 24 25 24 24 23 22 23 21 19 24
41 36 32 31 28 25 22 21 21 22 22 21 20 22 23 22 21 19 20 21 22 21 20 20 21 20 21 24 25 26 26 26 27 27 27 26 26 27 29 29 29 30 31 32 35 36 35 35 36 38 38 37 34 34 36 37 36 35 34 32 29 28 29 29 28 28 30 31 32 32 32 29 27 27 25 24 24 23 22 22 21 21 21 20 26
48 42 38 36 35 30 27 24 22 21 21 21 22 22 24 24 23 19 18 19 20 20 19 19 19 19 19 20 22 22 24 25 25 25 25 25 23 24 26 25 26 27 28 29 31 33 33 33 35 36 36 36 34 34 35 36 35 33 32 32 30 28 27 26 27 28 28 29 30 30 29 28 28 27 26 25 24 22 23 22 21 22 20 21 26
52 48 44 43 41 36 33 28 23 21 21 21 23 24 24 24 24 20 17 17 18 19 18 18 18 18 18 18 19 20 21 22 21 20 23 25 25 24 25 26 24 25 25 27 28 29 29 29 30 31 32 32 34 35 34 33 32 32 31 29 29 28 27 26 26 26 27 28 29 30 30 31 30 28 27 26 25 24 23 22 23 25 23 22 24
53 50 49 47 44 40 37 34 28 24 21 21 23 25 25 24 23 22 19 16 17 19 19 18 17 17 17 17 17 18 19 20 19 17 18 21 22 22 24 25 25 25 24 26 29 31 31 31 29 29 28 28 29 31 31 30 30 31 30 27 27 27 27 28 28 27 28 29 30 32 34 34 32 30 28 27 25 25 25 24 27 28 27 24 22
57 52 50 49 45 41 40 38 34 30 26 23 22 23 24 24 23 22 20 17 16 18 19 19 17 16 16 16 16 16 17 18 18 17 17 18 18 19 20 23 24 25 25 24 26 28 30 32 31 30 28 25 25 26 28 29 28 28 28 26 25 25 26 28 28 28 30 31 32 32 32 32 30 28 29 28 28 28 28 28 27 26 26 27 26
61 57 53 49 45 42 40 40 38 36 32 29 25 22 22 22 22 22 20 18 17 17 17 19 19 16 15 15 15 15 14 15 15 16 16 17 18 18 18 19 21 22 22 23 24 24 25 28 29 30 29 25 23 23 25 26 26 26 26 25 25 25 25 25 26 26 27 29 30 30 30 31 31 31 33 34 34 32 29 27 27 27 30 32 31
64 64 59 54 48 45 42 40 39 39 36 34 30 27 24 23 22 22 21 20 20 19 18 18 18 17 15 14 13 13 13 13 13 14 15 16 18 18 18 18 19 19 20 21 21 22 23 25 27 27 25 22 22 24 24 25 26 26 26 26 26 26 26 26 26 26 26 27 29 31 32 33 33 33 34 34 34 33 32 31 31 32 34 34 33
66 68 68 62 56 51 45 42 41 40 39 38 36 32 29 26 24 23 23 22 22 21 21 19 18 19 18 16 14 13 12 12 12 13 13 15 17 18 18 19 19 19 19 19 20 20 21 23 24 24 22 20 21 23 24 25 26 26 27 28 28 28 28 28 28 28 29 31 32 34 34 34 34 34 34 33 33 35 36 36 35 34 34 35 35
71 70 71 69 64 58 51 44 42 41 41 41 39 37 34 31 28 26 24 24 23 22 22 21 20 20 21 20 18 15 13 12 12 13 13 13 15 17 18 19 19 19 20 19 19 19 20 20 21 24 24 22 21 22 24 25 26 26 27 27 28 27 28 28 28 29 29 31 33 34 35 34 34 34 33 33 32 34 35 34 33 34 34 34 34
77 74 73 72 70 66 60 53 45 42 42 43 42 41 40 37 34 30 28 26 26 25 23 22 22 21 21 21 21 20 17 14 12 12 12 13 13 15 16 18 19 20 20 19 18 18 19 19 19 20 23 22 20 20 21 23 24 25 25 25 25 25 25 25 26 26 27 27 28 29 29 28 27 26 27 27 26 25 25 27 30 33 33 32 31
80 79 77 75 74 72 69 62 53 46 43 43 43 43 43 41 39 36 34 32 29 27 26 24 23 22 21 21 21 22 21 19 15 12 11 12 12 12 14 15 16 18 18 17 17 17 17 17 17 16 17 18 18 18 19 20 21 22 23 23 23 23 23 23 23 23 23 22 22 22 21 20 19 19 19 19 19 19 20 21 25 29 30 29 27
79 78 78 78 78 78 75 69 62 53 46 44 44 44 43 43 41 40 39 37 33 29 28 27 26 24 23 22 22 22 22 22 20 17 14 12 12 12 12 13 14 15 15 15 15 15 15 15 14 14 15 14 15 15 16 17 18 19 20 19 20 20 20 19 19 19 19 17 17 17 16 16 16 16 16 15 16 17 17 18 20 21 22 23 22
77 77 76 76 77 79 78 75 70 63 53 46 45 44 42 41 41 40 40 40 38 34 31 29 28 27 26 25 23 23 23 23 22 21 18 16 15 15 15 14 14 15 15 15 15 15 14 14 13 12 12 12 12 13 13 14 15 16 18 18 18 19 19 18 17 16 16 15 14 14 14 14 14 14 14 15 15 15 16 18 18 18 21 25 24
74 75 76 75 75 76 78 78 76 72 64 54 47 44 43 40 39 38 38 39 39 38 35 32 30 29 28 28 27 25 25 25 24 24 23 22 21 20 19 18 17 16 16 16 16 16 15 13 12 12 12 11 11 11 12 13 14 15 16 17 18 19 21 21 19 16 15 14 14 13 12 12 12 13 12 13 14 15 17 18 16 17 24 29 29
72 73 75 76 76 76 76 78 80 78 72 64 56 49 45 42 40 38 37 37 38 38 38 37 35 33 30 29 28 28 27 27 27 27 26 26 26 25 24 23 23 20 19 18 18 17 15 13 12 12 12 12 12 12 12 13 14 15 16 17 17 17 19 22 23 21 19 17 15 13 13 12 11 11 11 12 13 14 16 17 16 19 27 30 31
69 71 73 76 78 80 78 78 80 80 77 72 66 59 52 47 45 43 40 39 38 38 38 38 37 36 34 31 30 28 28 28 28 28 28 28 28 27 27 26 25 24 22 21 20 18 17 15 13 13 12 12 13 13 13 14 14 15 16 17 17 17 18 20 23 24 25 23 18 14 13 13 12 12 12 12 13 14 15 16 16 20 26 29 31
66 69 70 72 74 80 82 81 79 80 80 77 72 67 62 56 52 51 49 47 45 41 39 39 38 37 36 34 32 30 29 28 28 28 28 29 29 29 29 28 27 26 24 23 22 21 19 17 15 14 14 14 14 14 14 15 15 16 16 17 16 16 17 20 22 22 24 24 22 19 18 17 15 14 13 12 12 13 15 16 17 18 21 27 32
61 66 68 68 68 73 80 83 81 79 80 81 78 74 71 67 62 60 58 55 52 47 42 40 39 38 36 35 34 33 31 29 28 29 28 29 30 30 30 30 29 28 27 25 24 22 20 18 16 15 14 14 15 16 16 16 16 17 17 16 16 16 17 20 23 24 23 23 23 23 21 19 18 18 16 15 15 14 14 14 16 18 20 24 30
54 59 64 67 66 68 72 78 83 82 81 83 84 80 76 74 71 68 66 63 59 53 47 44 41 39 37 35 34 34 33 31 30 30 29 29 30 30 30 30 30 30 30 28 27 25 22 20 18 16 15 15 16 17 17 17 17 17 17 16 16 17 17 18 21 24 25 25 25 25 24 23 22 22 20 20 20 20 19 17 16 16 18 21 27
51 53 59 65 66 65 67 70 77 82 82 84 86 84 80 80 77 74 71 68 64 58 52 49 44 41 39 37 35 34 34 33 33 32 31 29 29 29 29 28 29 30 30 29 29 27 26 25 23 20 16 15 16 17 17 17 17 16 15 16 16 17 18 19 20 22 23 24 24 26 25 24 25 26 23 20 19 20 20 20 20 19 18 19 23
53 51 55 62 65 65 67 68 70 75 80 84 86 85 82 80 78 74 71 70 68 64 58 52 47 44 41 38 36 35 35 36 39 40 37 33 29 28 28 27 27 29 29 30 30 30 29 29 28 25 20 17 18 19 19 18 17 15 15 16 17 18 19 20 21 21 22 22 22 23 23 22 22 22 20 16 14 16 16 16 18 21 20 21 23
55 52 53 58 61 63 67 70 70 71 74 79 82 83 83 82 79 75 73 73 72 69 62 55 50 47 45 42 39 38 39 41 45 46 43 38 33 31 30 28 26 27 28 28 29 29 30 31 30 28 23 20 20 21 20 18 17 16 17 18 19 21 21 20 20 21 22 22 23 23 21 20 19 18 15 15 16 17 17 16 17 19 21 22 24
55 54 54 56 59 61 65 69 72 73 73 75 77 78 79 82 82 79 76 75 74 72 67 61 55 50 47 46 45 45 45 45 47 48 46 42 38 35 34 31 29 28 29 30 30 30 30 31 31 29 26 23 21 21 20 18 18 19 20 20 22 22 22 21 21 21 21 22 23 24 22 20 20 18 17 18 18 19 18 18 18 19 20 22 24
52 55 56 57 60 62 61 64 69 74 74 74 75 75 76 77 78 80 79 77 75 75 74 71 62 54 50 49 50 51 52 49 49 51 50 46 42 39 37 36 35 33 31 30 31 32 32 32 33 32 30 28 25 23 22 22 22 22 22 22 23 23 22 22 21 21 22 23 23 23 22 21 21 21 20 20 19 19 18 18 18 19 20 22 24
49 52 55 58 62 62 59 57 62 68 72 73 72 72 73 74 75 76 79 78 77 76 77 76 69 61 57 55 54 54 53 51 52 55 54 51 48 46 46 47 48 48 47 44 42 41 39 36 35 35 34 32 31 29 28 27 26 25 25 26 26 26 26 25 24 23 24 24 23 23 23 22 21 21 21 20 19 17 18 18 19 19 20 22 24
46 50 53 56 61 63 60 58 59 61 64 69 71 68 67 70 73 74 75 77 78 77 78 77 72 66 63 59 56 53 47 47 54 61 61 57 55 54 54 55 57 61 65 65 63 60 53 44 40 39 38 38 37 36 35 35 34 34 33 32 32 32 32 31 29 27 25 25 24 24 24 23 21 20 20 20 19 17 18 19 20 20 20 22 25
41 46 50 53 57 60 59 58 59 58 55 59 68 70 66 64 66 68 70 73 76 78 80 78 74 71 68 63 60 55 48 45 53 64 68 66 63 60 58 58 57 58 60 61 62 63 59 51 46 45 45 45 45 45 45 46 46 45 43 41 39 38 38 37 36 34 32 29 27 26 25 24 23 21 20 20 19 19 19 19 21 23 22 22 24
40 42 46 49 52 57 58 57 57 56 52 51 58 65 68 65 62 61 61 65 69 74 79 80 78 75 71 66 64 62 57 54 56 62 69 74 72 67 64 64 61 58 56 57 59 61 61 57 53 51 50 50 50 49 49 50 50 50 49 47 45 43 41 40 39 40 38 35 31 29 27 26 25 23 21 20 20 20 20 20 22 24 25 24 24
42 41 44 47 49 52 56 57 55 53 52 52 53 58 63 65 64 60 57 58 61 67 74 80 81 76 70 66 66 64 62 61 62 63 71 78 76 70 67 67 65 64 64 65 64 63 64 62 56 53 53 52 52 51 51 50 50 51 50 48 47 46 44 41 40 39 39 37 35 32 29 27 26 26 24 23 22 21 20 21 24 24 22 23 23
42 41 42 45 48 49 52 56 56 53 51 50 52 55 60 62 64 64 61 58 57 59 66 75 80 77 70 67 67 65 63 65 68 69 75 79 75 68 65 65 66 69 71 71 68 66 65 62 58 55 54 53 52 53 53 52 52 52 52 51 49 48 46 44 43 41 39 37 36 35 33 31 28 26 26 25 25 24 23 24 25 25 22 22 23
41 42 42 43 46 49 51 53 55 54 52 50 50 56 63 63 62 64 65 64 61 60 61 67 74 76 71 69 70 69 68 72 74 73 73 73 69 66 65 63 64 67 68 67 66 65 64 61 59 57 56 54 53 54 53 53 53 53 52 52 51 49 48 46 45 44 42 40 38 36 36 36 32 29 29 28 26 26 26 26 27 26 25 23 24
38 41 43 44 44 46 48 52 54 56 56 52 51 56 64 66 63 62 64 67 69 67 64 64 68 71 69 68 72 73 71 70 69 65 63 63 62 63 63 61 61 63 65 64 62 61 60 60 59 58 57 57 57 56 56 55 56 54 53 53 52 50 48 47 45 45 45 44 42 39 37 38 36 36 37 36 31 30 30 29 28 28 26 25 28
37 38 42 45 46 44 44 48 53 57 58 55 52 54 61 65 67 65 63 64 69 71 68 65 67 70 68 67 69 70 68 66 64 61 59 60 60 61 60 58 57 59 60 60 59 59 59 60 60 59 58 57 57 56 56 57 57 56 56 55 53 51 50 49 48 46 44 44 43 42 40 40 41 41 41 40 38 37 35 32 31 30 27 27 30
38 36 38 41 43 42 41 43 48 55 58 56 52 54 58 61 65 66 65 64 66 69 68 67 69 72 71 69 68 67 65 65 64 62 60 61 62 61 60 59 59 59 59 58 59 59 60 61 61 60 58 55 54 54 54 55 56 56 56 56 55 54 53 52 50 48 46 45 45 44 43 44 46 45 43 41 41 42 40 36 34 31 29 29 32
37 36 38 38 38 40 41 40 42 49 57 58 55 54 56 57 59 63 67 67 66 66 66 67 69 72 74 73 71 69 67 66 65 63 62 64 64 64 64 63 61 60 60 60 61 61 60 61 62 61 59 56 55 55 56 57 57 56 57 57 57 55 55 53 51 48 46 46 45 44 45 49 51 49 46 44 44 44 41 39 36 35 34 33 35
37 37 37 37 36 37 40 40 39 43 53 59 58 57 57 57 56 60 66 69 69 68 68 67 67 68 72 75 74 72 71 71 69 66 65 65 66 67 70 71 69 66 62 61 62 61 59 60 63 62 59 57 57 57 59 60 60 59 61 62 62 60 59 58 55 52 50 51 50 47 48 53 57 56 53 51 51 50 47 42 38 38 39 39 40
38 37 37 37 36 35 37 38 38 40 47 56 60 59 60 59 57 59 64 68 69 70 70 68 65 64 67 70 72 72 73 75 75 73 71 70 69 69 70 73 74 74 71 68 65 62 59 59 63 64 62 60 59 59 60 60 60 61 64 66 67 66 64 62 61 59 58 58 56 52 50 52 54 55 54 53 52 54 54 49 43 42 43 44 44
39 40 40 39 36 35 35 37 38 39 44 51 58 61 62 61 60 60 63 66 69 70 70 70 69 67 66 68 70 71 70 72 75 75 73 71 70 70 69 68 69 72 74 73 71 68 64 62 63 65 67 65 62 60 59 58 57 58 61 63 65 66 66 65 64 63 63 61 58 56 56 56 54 54 55 54 50 49 51 49 45 44 46 48 47
42 43 45 44 40 38 37 37 38 39 42 48 55 60 63 64 63 62 62 64 69 71 70 68 69 71 71 70 70 70 70 70 71 71 69 68 67 66 64 63 63 63 64 68 70 69 65 62 63 65 68 69 67 65 63 61 59 58 59 60 61 63 65 65 65 65 64 62 59 59 61 61 57 55 56 57 55 52 52 50 47 46 47 48 50
44 46 47 48 46 44 41 40 39 40 42 47 53 59 63 65 64 63 62 64 66 71 72 70 67 68 70 71 71 71 71 72 72 70 67 67 66 64 61 61 62 60 59 62 66 65 61 61 62 64 65 67 68 68 67 65 63 62 61 61 61 61 62 63 64 66 65 62 62 66 70 70 66 62 59 60 61 60 57 53 52 52 51 50 53
46 46 47 50 51 49 46 43 43 43 44 47 52 57 63 66 65 65 64 64 65 69 74 74 71 68 67 69 72 73 73 74 73 71 68 65 64 62 59 58 60 61 58 58 60 60 58 57 58 59 61 62 64 65 65 64 61 60 60 61 60 60 60 61 63 64 62 61 62 66 67 66 64 63 61 61 61 61 60 57 55 55 56 56 59
49 48 48 52 55 55 50 47 46 47 47 48 52 57 61 65 67 67 67 67 67 69 72 76 77 74 69 68 70 72 73 72 71 70 69 67 66 65 62 60 61 63 62 60 60 60 60 57 56 56 57 57 57 59 60 58 56 54 54 53 51 51 51 53 55 56 56 56 56 55 54 52 52 52 53 53 53 56 63 66 65 62 61 62 65
51 50 51 54 59 58 55 52 52 52 52 52 54 56 59 63 65 67 68 69 70 71 72 74 78 78 73 69 69 69 68 68 67 66 65 66 67 67 65 63 62 61 61 61 61 63 64 64 62 61 59 58 57 56 55 52 49 46 45 43 42 41 41 43 44 46 48 50 50 49 48 48 49 49 49 52 56 60 65 70 71 68 66 68 72
54 54 54 57 61 62 60 57 57 57 57 57 57 57 58 59 62 65 66 66 67 69 70 73 76 77 75 72 70 68 66 64 65 63 62 62 63 64 64 64 64 62 60 60 60 61 62 63 62 62 61 60 59 56 52 49 46 43 40 38 37 36 36 37 38 40 43 46 48 49 48 48 48 48 48 51 57 60 61 64 69 70 70 73 77
61 61 60 61 63 66 65 63 61 61 61 61 60 59 58 57 59 62 65 64 64 65 66 68 72 77 78 74 72 69 66 64 65 65 64 62 62 62 62 63 63 62 60 58 56 56 56 55 55 54 54 54 53 52 51 50 49 47 46 44 41 39 39 39 40 42 44 47 50 52 53 52 52 52 51 53 58 62 63 66 71 74 75 76 78
68 69 67 65 65 67 69 68 66 65 64 63 63 61 60 58 57 59 62 63 63 63 64 64 66 73 78 79 76 71 68 65 64 64 65 64 63 63 64 64 63 61 58 57 56 56 55 52 50 49 49 50 50 50 49 49 48 46 45 44 43 42 41 42 43 45 49 52 55 56 56 56 56 57 58 58 61 66 70 73 75 78 80 80 80
72 74 73 69 67 67 69 71 70 69 67 66 65 63 62 60 58 58 59 62 63 63 64 64 63 66 73 79 78 74 72 71 68 66 66 66 64 62 62 62 63 62 59 56 54 54 54 53 50 48 48 48 48 49 49 49 48 47 45 44 44 44 45 46 49 53 57 60 61 59 57 57 57 58 60 61 63 66 69 71 74 79 83 84 85
75 77 76 74 70 68 69 70 72 72 71 69 68 66 65 63 61 59 58 60 61 62 63 64 63 63 67 73 74 72 71 71 71 71 70 70 69 67 64 62 62 63 62 58 54 52 52 51 50 48 47 46 46 46 47 48 48 48 48 48 49 49 51 53 56 58 61 63 63 61 59 57 56 55 57 61 65 65 64 70 79 86 87 87 88